Regional Weather Roundup
Issued by NWS

Home | Current Version | Previous Version | Graphics & Text | Print | Product List | Glossary On
Versions: 1 2 3 4 5 6 7 8 9 10 11 12 13 14 15 16 17 18 19 20 21 22 23 24 25 26 27 28 29 30 31 32 33 34 35 36 37 38 39 40 41 42 43 44 45 46 47 48 49 50
000
ASUS44 KMEG 270110
RWRTN
TENNESSEE HOURLY STATE WEATHER ROUNDUP
NATIONAL WEATHER SERVICE MEMPHIS TN
700 PM CST WED NOV 26 2014

TNZ002-004-019-021-049-052-054-088>092-270200-
WEST TENNESSEE

CITY           SKY/WX    TMP DP  RH WIND       PRES   REMARKS
MEMPHIS INTL   MOCLDY    45  34  65 CALM      30.13R
NWS MEMPHIS      N/A     44 N/A N/A MISG        N/A
JACKSON        CLOUDY    43  33  68 W10       30.10R
DYERSBURG      MOCLDY    39  25  56 W7        30.12R WCI  34
UNION CITY     MOCLDY    36  34  93 W9        30.06R WCI  29
PARIS          CLOUDY    37  34  87 W12       30.04R WCI  30
HUNTINGDON     PTCLDY    38  33  82 W13       30.06R WCI  30
LEXINGTON      CLEAR     43  34  70 W10       30.05R
SAVANNAH       CLEAR     43  32  65 W8        30.08R
$$

TNZ008-025-027-028-033-062-065-066-270200-
NORTH MIDDLE TENNESSEE

CITY           SKY/WX    TMP DP  RH WIND       PRES   REMARKS
NASHVILLE      LGT RAIN  42  39  89 S3        30.03F
CLARKSVILLE    LGT RAIN  40  37  89 W3        30.02F
COOKEVILLE     MOCLDY    43  34  70 SW14      30.02R
CROSSVILLE     CLOUDY    43  22  43 S8        30.00R
$$

TNZ061-075-076-078-094-096-097-270200-
SOUTH MIDDLE TENNESSEE

CITY           SKY/WX    TMP DP  RH WIND       PRES   REMARKS
FAYETTEVILLE   CLOUDY    43  36  75 MISG      30.02F
TULLAHOMA      CLOUDY    43  34  70 W7        30.03S
WINCHESTER     MOCLDY    45  36  70 SW10      30.04R
MCMINNVILLE    CLOUDY    43  36  75 CALM      30.02S
COLUMBIA       CLOUDY    43  43 100 SW5       30.00S
SHELBYVILLE    MOCLDY    45  39  81 SW8       30.04S
$$

TNZ017-018-042-046-047-270200-
NORTHEAST TENNESSEE

CITY           SKY/WX    TMP DP  RH WIND       PRES   REMARKS
TRI CITIES     MOCLDY    36  35  96 CALM      30.01S
ELIZABETHTON   PTCLDY    32  30  93 CALM      30.02R
$$

TNZ012-013-036-069-073-074-270200-
CENTRAL EAST TENNESSEE

CITY           SKY/WX    TMP DP  RH WIND       PRES   REMARKS
KNOXVILLE      CLOUDY    45  27  49 S7        30.02F
OAK RIDGE      CLOUDY    46  24  42 CALM      30.02F
GATLINBURG     CLEAR     45  23  42 CALM      30.02F
MORRISTOWN     CLEAR     45  25  45 SW7       30.01S
$$

TNZ083-085-099-270200-
SOUTHEAST TENNESSEE

CITY           SKY/WX    TMP DP  RH WIND       PRES   REMARKS
CHATTANOOGA    CLOUDY    50  27  40 CALM      30.03F
$$

SKY/WX REPORTED AS FAIR MEANS FEW OR NO CLOUDS BELOW
12 THOUSAND FEET.




USA.gov is the U.S. government's official web portal to all federal, state and local government web resources and services.